Location: Bun Machan
(52.1403°N, 7.3744°W)
Time: 08:17:45
(UTC+00:00)

Lacrosse 5 - Pass Details

Date: 14 July 2020
Orbit: 717 x 720 km, 57.0° (Epoch: 02 August)

Event Time Altitude Azimuth Distance (km) Brightness Sun altitude
Exits shadow 01:49:49 13° 242° (WSW) 2,025 3.8 -14.5°
Maximum altitude 01:54:27 87° 332° (NNW) 725 1.9 -14.2°
Drops below altitude 10° 01:59:33 10° 62° (ENE) 2,209 5.1 -14.0°
Sets 02:01:56 0° 63° (ENE) 3,132 6.0 -13.9°
